Regional Weather Roundup
Issued by NWS

Home | Current Version | Previous Version | Text Only | Print | Product List | Glossary On
Versions: 1 2 3 4 5 6 7 8 9 10 11 12 13 14 15 16 17 18 19 20 21 22 23 24 25 26 27 28 29 30 31 32 33 34 35 36 37 38 39 40 41 42 43 44 45 46 47 48 49 50
000
ASUS43 KOAX 042210
RWRNE

WEATHER ROUNDUP FOR NEBRASKA
NATIONAL WEATHER SERVICE OMAHA NE
500 PM CDT SAT JUL 04 2015

NOTES: SATELLITE DATA IS BEING USED TO AUGMENT CLOUD COVER ABOVE
       12000 FEET.
       "FAIR" INDICATES FEW OR NO CLOUDS BELOW 12,000 FEET WITH NO
       SIGNIFICANT WEATHER AND/OR OBSTRUCTIONS TO VISIBILITY.

  * THESE STATIONS DO NOT REPORT WEATHER SUCH AS RAIN...SNOW OR FOG.

NEZ001>004-019>022-054>056-042300-
NEBRASKA PANHANDLE

CITY           SKY/WX    TMP DP  RH WIND       PRES   REMARKS
SCOTTSBLUFF    SUNNY     97  50  20 S13G20    29.84F HX  94
ALLIANCE       SUNNY     84  61  45 S10       29.86F
CHADRON        MOSUNNY   94  62  34 VRB3      29.81F HX  94
KIMBALL          N/A    N/A N/A N/A MISG        N/A
SIDNEY         MOSUNNY   92  56  29 S6G25     29.90F HX  90
$$

NEZ057>060-069>072-079>082-042300-
SOUTHWEST NEBRASKA

CITY           SKY/WX    TMP DP  RH WIND       PRES   REMARKS
NORTH PLATTE   SUNNY     91  64  40 SE14      29.87F HX  92
IMPERIAL       SUNNY     97  56  25 S13       29.87F HX  95
LEXINGTON      SUNNY     90  65  43 SE18G24   29.90F HX  91
MCCOOK         SUNNY     95  58  28 S16       29.86F HX  94
OGALLALA       SUNNY     91  59  34 S9        29.87F HX  91
$$

NEZ005>010-023>029-035>040-094-042300-
NORTH CENTRAL NEBRASKA

CITY           SKY/WX    TMP DP  RH WIND       PRES   REMARKS
VALENTINE      SUNNY     92  64  39 S22G28    29.83F HX  93
AINSWORTH      MOSUNNY   89  66  47 S16       29.87F HX  91
BROKEN BOW     MOSUNNY   86  67  52 S18G25    29.91F
O`NEILL        MOSUNNY   86  65  50 S15G22    29.89F
ORD            MOSUNNY   86  65  49 S15G24    29.89F
THEDFORD       SUNNY     88  65  45 S17G23    29.89F HX  90
$$

NEZ041-046>049-061>064-073>077-083>087-042300-
SOUTH CENTRAL NEBRASKA

CITY           SKY/WX    TMP DP  RH WIND       PRES   REMARKS
GRAND ISLAND   MOSUNNY   84  66  54 S15       29.93F
AURORA         SUNNY     83  64  53 S12G18    29.94F
HASTINGS       MOSUNNY   85  64  49 SE17      29.93F
HEBRON         SUNNY     84  61  44 S9        29.94F
HOLDREGE       SUNNY     87  62  44 S14       29.91F
KEARNEY *      SUNNY     86  66  51 S15       29.92F
YORK           SUNNY     81  66  61 S12       29.95F
$$

NEZ011>018-030>034-042>045-042300-
NORTHEAST NEBRASKA

CITY           SKY/WX    TMP DP  RH WIND       PRES   REMARKS
NORFOLK        MOSUNNY   82  64  54 S12       29.93F
ALBION         SUNNY     82  64  53 S13G20    29.92F
BLAIR          MOSUNNY   79  62  55 S12       29.95F
COLUMBUS *     SUNNY     81  64  57 S10G20    29.95F
FREMONT        PTSUNNY   82  63  52 S10G16    29.95F
TEKAMAH        MOSUNNY   85  63  47 S15       29.93F
WAYNE          PTSUNNY   80  67  64 S14G20    29.93F
$$

NEZ050>053-065>068-078-088>093-042300-
SOUTHEAST NEBRASKA

CITY           SKY/WX    TMP DP  RH WIND       PRES   REMARKS
LINCOLN        MOSUNNY   83  65  54 S13       29.94F
OMAHA EPPLEY   PTSUNNY   81  61  50 S7        29.95F
BEATRICE       MOSUNNY   82  62  50 S9G16     29.95F
FALLS CITY     PTSUNNY   81  62  52 S10       29.95F
NEBRASKA CITY  PTSUNNY   81  56  42 S10       29.96F
PLATTSMOUTH    PTSUNNY   79  59  49 S7        29.96F
$$

NEZ044-045-051>053-067-042300-
OMAHA AREA

CITY           SKY/WX    TMP DP  RH WIND       PRES   REMARKS
OMAHA EPPLEY   PTSUNNY   81  61  50 S7        29.95F
BLAIR          MOSUNNY   79  62  55 S12       29.95F
FREMONT        PTSUNNY   82  63  52 S10G16    29.95F
MILLARD        PTSUNNY   80  63  55 SE10      29.95F
OFFUTT AFB     PTSUNNY   80  63  56 S9        29.95F
PLATTSMOUTH    PTSUNNY   79  59  49 S7        29.96F
WAHOO          FAIR      83  65  53 SE12G18   29.94F
$$


USA.gov is the U.S. government's official web portal to all federal, state and local government web resources and services.